Tracking 27124 objects as of 31-Mar-2023
HD Live streaming from Space Station
objects crossing your sky now

DELTA 2 DEB

Track DELTA 2 DEB now!
10-day predictions


NORAD ID: 26791
Int'l Code: 1992-019D
Perigee: 199.4 km
Apogee: 6,038.5 km
Inclination: 34.6 °
Period: 153.3 minutes
Semi major axis: 9489 km
RCS: 0.015 m2 (small)
Launch date: April 10, 1992
Source: United States (US)
Launch site: AIR FORCE EASTERN TEST RANGE (AFETR)

Note: This is SATELLITE DEBRIS
Your satellite tracking list
Your tracking list is empty




NASA's NSSDC Master Catalog

Two Line Element Set (TLE):
1 26791U 92019D   23089.84742572  .00150371  34116-6  94161-3 0  9999
2 26791  34.6340 244.4889 3076441 140.2341 246.9881  9.39092757609460
Source of the keplerian elements: AFSPC